YO3FVR-WX Weather Reports


time (UTC)temp
C
wind
direction
speed
KPH
gust
KPH
rain 1hr
cm
rain 24hr
cm
rain mn
cm
humidity
%
barometer
mb
20260902130625 30 203 0.0 0.0 0.00 0.00 0.00 46 1012.4
20260902125625 30 0 0.0 0.0 0.00 0.00 0.00 46 1012.5
20260902124555 30 0 0.0 0.0 0.00 0.00 0.00 47 1012.7
20260902123555 29 0 0.0 3.2 0.00 0.00 0.00 47 1012.8
20260902122525 30 40 0.0 0.0 0.00 0.00 0.00 48 1013.0
20260902121455 29 0 0.0 0.0 0.00 0.00 0.00 49 1013.1
20260902120455 29 0 0.0 0.0 0.00 0.00 0.00 49 1013.2
20260902115455 28 90 0.0 0.0 0.00 0.00 0.00 49 1013.2
20260902114425 28 0 0.0 0.0 0.00 0.00 0.00 49 1013.4
20260902113355 28 179 0.0 0.0 0.00 0.00 0.00 49 1013.7
20260902112325 28 216 0.0 1.6 0.00 0.00 0.00 49 1013.8
20260902111255 28 0 0.0 0.0 0.00 0.00 0.00 50 1013.9
20260902110225 28 0 0.0 3.2 0.00 0.00 0.00 51 1013.9
20260902105225 28 0 0.0 1.6 0.00 0.00 0.00 51 1013.9
20260902104155 28 0 0.0 19.3 0.00 0.00 0.00 52 1014.0
20260902103155 28 321 19.3 19.3 0.00 0.00 0.00 53 1014.1
20260902102125 27 0 0.0 0.0 0.00 0.00 0.00 53 1014.2
20260902101055 27 0 0.0 0.0 0.00 0.00 0.00 54 1014.2
20260902100055 27 0 0.0 0.0 0.00 0.00 0.00 54 1014.3
20260902095025 27 0 0.0 0.0 0.00 0.00 0.00 55 1014.4
20260902093955 26 0 0.0 0.0 0.00 0.00 0.00 55 1014.4
20260902092925 26 0 0.0 0.0 0.00 0.00 0.00 55 1014.5
20260902091925 26 0 0.0 0.0 0.00 0.00 0.00 56 1014.6
20260902090855 26 0 0.0 0.0 0.00 0.00 0.00 57 1014.7
20260902085825 26 0 0.0 0.0 0.00 0.00 0.00 57 1014.7
20260902084755 26 0 0.0 0.0 0.00 0.00 0.00 57 1014.7
20260902083755 26 0 0.0 0.0 0.00 0.00 0.00 58 1014.7
20260902082755 26 0 0.0 0.0 0.00 0.00 0.00 59 1014.8
20260902081725 26 0 0.0 0.0 0.00 0.00 0.00 60 1014.8
20260902080725 25 0 0.0 0.0 0.00 0.00 0.00 61 1014.8
20260902075655 25 0 0.0 0.0 0.00 0.00 0.00 62 1014.9
20260902074655 25 0 0.0 0.0 0.00 0.00 0.00 62 1014.8
20260902073625 24 0 0.0 0.0 0.00 0.00 0.00 63 1014.8
20260902072555 23 0 0.0 0.0 0.00 0.00 0.00 64 1014.6
20260902071555 23 0 0.0 0.0 0.00 0.00 0.00 65 1014.8
20260902070555 23 0 0.0 0.0 0.00 0.00 0.00 66 1014.7
20260902065525 23 0 0.0 0.0 0.00 0.00 0.00 66 1014.6
20260902064455 22 0 0.0 0.0 0.00 0.00 0.00 68 1014.5
20260902063425 22 0 0.0 0.0 0.00 0.00 0.00 69 1014.5
20260902062355 21 0 0.0 0.0 0.00 0.00 0.00 72 1014.5
20260902061325 21 0 0.0 0.0 0.00 0.00 0.00 72 1014.5
20260902060255 21 0 0.0 0.0 0.00 0.00 0.00 74 1014.4
20260902055255 20 0 0.0 0.0 0.00 0.00 0.00 74 1014.5
20260902054225 20 0 0.0 0.0 0.00 0.00 0.00 75 1014.5
20260902053155 20 0 0.0 0.0 0.00 0.00 0.00 77 1014.6
20260902052155 20 0 0.0 0.0 0.00 0.00 0.00 77 1014.8
20260902051125 20 0 0.0 0.0 0.00 0.00 0.00 78 1014.7
20260902050125 20 0 0.0 0.0 0.00 0.00 0.00 78 1014.7
20260902045125 20 0 0.0 0.0 0.00 0.00 0.00 78 1014.5
20260902044055 20 0 0.0 0.0 0.00 0.00 0.00 78 1014.5
20260902043025 20 0 0.0 0.0 0.00 0.00 0.00 77 1014.1
20260902042025 20 0 0.0 0.0 0.00 0.00 0.00 76 1014.3
20260902040955 20 0 0.0 0.0 0.00 0.00 0.00 75 1014.0
20260902035955 20 0 0.0 0.0 0.00 0.00 0.00 73 1014.1
20260902034955 20 0 0.0 0.0 0.00 0.00 0.00 72 1014.3
20260902033925 21 0 0.0 0.0 0.00 0.00 0.00 71 1014.3
20260902032855 21 0 0.0 0.0 0.00 0.00 0.00 71 1014.1
20260902031825 21 0 0.0 0.0 0.00 0.00 0.00 71 1013.8
20260902030755 21 0 0.0 0.0 0.00 0.00 0.00 71 1013.7
20260902025755 21 0 0.0 0.0 0.00 0.00 0.00 70 1013.8
20260902024725 21 0 0.0 0.0 0.00 0.00 0.00 68 1013.8
20260902023655 22 0 0.0 0.0 0.00 0.00 0.00 65 1014.0
20260902022625 22 0 0.0 0.0 0.00 0.00 0.00 65 1013.9
20260902021555 22 0 0.0 0.0 0.00 0.00 0.00 65 1013.6
20260902020555 22 0 0.0 0.0 0.00 0.00 0.00 65 1013.5
20260902015526 22 0 0.0 0.0 0.00 0.00 0.00 64 1013.5
20260902014456 22 0 0.0 0.0 0.00 0.00 0.00 64 1013.5
20260902013425 22 0 0.0 0.0 0.00 0.00 0.00 64 1013.4
20260902012426 22 0 0.0 0.0 0.00 0.00 0.00 64 1013.4
20260902011356 22 0 0.0 0.0 0.00 0.00 0.00 63 1013.3
20260902010326 22 0 0.0 0.0 0.00 0.00 0.00 64 1013.4
20260902005256 22 0 0.0 0.0 0.00 0.00 0.00 64 1013.4
20260902004226 22 0 0.0 0.0 0.00 0.00 0.00 63 1013.5
20260902003226 22 0 0.0 0.0 0.00 0.00 0.00 63 1013.4
20260902002156 23 0 0.0 0.0 0.00 0.00 0.00 62 1013.2
20260902001126 23 0 0.0 0.0 0.00 0.00 0.00 62 1013.3
20260902000056 23 0 0.0 0.0 0.00 0.00 0.00 62 1013.3
20260901235026 23 0 0.0 0.0 0.00 0.00 0.00 61 1013.2
20260901233956 23 0 0.0 0.0 0.00 0.00 0.00 60 1013.3
20260901232926 23 0 0.0 0.0 0.00 0.00 0.00 60 1013.1
20260901231856 23 0 0.0 0.0 0.00 0.00 0.00 59 1013.1
20260901230826 23 0 0.0 0.0 0.00 0.00 0.00 59 1013.1
20260901225756 23 0 0.0 0.0 0.00 0.00 0.00 59 1013.1
20260901224726 24 0 0.0 0.0 0.00 0.00 0.00 58 1013.2
20260901223656 24 0 0.0 1.6 0.00 0.00 0.00 58 1013.3
20260901222626 24 231 1.6 1.6 0.00 0.00 0.00 58 1013.2
20260901221626 24 0 0.0 11.3 0.00 0.00 0.00 57 1013.3
20260901220556 25 0 0.0 3.2 0.00 0.00 0.00 57 1013.1
20260901215526 25 0 0.0 1.6 0.00 0.00 0.00 57 1013.1
20260901214526 25 0 0.0 4.8 0.00 0.00 0.00 56 1013.0
20260901213456 25 0 0.0 0.0 0.00 0.00 0.00 56 1013.0
20260901212426 25 0 0.0 0.0 0.00 0.00 0.00 57 1013.0
20260901211426 25 0 0.0 0.0 0.00 0.00 0.00 58 1012.8
20260901210356 24 0 0.0 17.7 0.00 0.00 0.00 58 1012.6
20260901205356 24 0 0.0 0.0 0.00 0.00 0.00 57 1012.7
20260901204326 24 0 0.0 0.0 0.00 0.00 0.00 57 1012.6
20260901203256 24 0 0.0 0.0 0.00 0.00 0.00 55 1012.5
20260901202256 24 0 0.0 0.0 0.00 0.00 0.00 54 1012.4
20260901201226 24 0 0.0 0.0 0.00 0.00 0.00 53 1012.4
20260901200226 24 0 0.0 0.0 0.00 0.00 0.00 53 1012.3
20260901195156 25 0 0.0 0.0 0.00 0.00 0.00 51 1012.2
20260901194156 25 0 0.0 0.0 0.00 0.00 0.00 51 1012.2
20260901193156 25 0 0.0 0.0 0.00 0.00 0.00 50 1012.1
20260901192126 25 0 0.0 0.0 0.00 0.00 0.00 49 1012.1
20260901191057 25 0 0.0 0.0 0.00 0.00 0.00 49 1012.1
20260901190026 26 0 0.0 0.0 0.00 0.00 0.00 49 1012.0
20260901184956 26 0 0.0 0.0 0.00 0.00 0.00 49 1011.9
20260901183926 26 0 0.0 0.0 0.00 0.00 0.00 47 1011.8
20260901182856 26 0 0.0 0.0 0.00 0.00 0.00 47 1011.8
20260901181826 27 0 0.0 0.0 0.00 0.00 0.00 46 1011.7
20260901180756 27 0 0.0 0.0 0.00 0.00 0.00 45 1011.5
20260901175756 27 0 0.0 0.0 0.00 0.00 0.00 44 1011.4
20260901174726 27 0 0.0 0.0 0.00 0.00 0.00 44 1011.4
20260901173656 28 0 0.0 0.0 0.00 0.00 0.00 44 1011.3
20260901172656 28 0 0.0 0.0 0.00 0.00 0.00 43 1011.2
20260901171626 28 0 0.0 0.0 0.00 0.00 0.00 43 1011.1
20260901170626 28 0 0.0 0.0 0.00 0.00 0.00 42 1010.9
20260901165556 29 0 0.0 0.0 0.00 0.00 0.00 41 1010.8
20260901164526 30 0 0.0 0.0 0.00 0.00 0.00 41 1010.6
20260901163456 30 0 0.0 0.0 0.00 0.00 0.00 39 1010.6
20260901162426 30 0 0.0 0.0 0.00 0.00 0.00 39 1010.6
20260901161426 30 0 0.0 0.0 0.00 0.00 0.00 38 1010.7
20260901160426 31 0 0.0 0.0 0.00 0.00 0.00 38 1010.7
20260901155356 31 0 0.0 0.0 0.00 0.00 0.00 37 1010.8
20260901154326 31 0 0.0 4.8 0.00 0.00 0.00 37 1010.7
20260901153256 31 0 0.0 0.0 0.00 0.00 0.00 37 1010.7
20260901152256 31 0 0.0 32.2 0.00 0.00 0.00 37 1010.7
20260901151226 31 181 32.2 32.2 0.00 0.00 0.00 37 1010.6
20260901150156 31 0 0.0 0.0 0.00 0.00 0.00 37 1010.8
20260901145126 31 0 0.0 27.4 0.00 0.00 0.00 37 1010.8
20260901144126 31 0 0.0 0.0 0.00 0.00 0.00 37 1010.8
20260901143056 31 0 0.0 1.6 0.00 0.00 0.00 37 1010.7
20260901142056 31 0 0.0 1.6 0.00 0.00 0.00 37 1010.7
20260901141026 31 333 1.6 1.6 0.00 0.00 0.00 37 1010.7
20260901135956 31 0 0.0 1.6 0.00 0.00 0.00 36 1010.8
20260901134956 31 0 0.0 3.2 0.00 0.00 0.00 36 1010.9
20260901133956 31 0 0.0 1.6 0.00 0.00 0.00 36 1010.9
20260901132926 31 3 1.6 3.2 0.00 0.00 0.00 36 1010.8
20260901131856 31 19 3.2 3.2 0.00 0.00 0.00 36 1010.9